Location: Brunembert
(50.7122°N, 1.8935°E)
Time: 09:04:16
(UTC+00:00)

Cosmos 44 Rocket - Pass Details

Date: 22 April 2021
Orbit: 636 x 754 km, 65.1° (Epoch: 05 May)

Event Time Altitude Azimuth Distance (km) Brightness Sun altitude
Rises 21:52:41 0° 225° (SW) 3,121 6.5 -21.7°
Reaches altitude 10° 21:55:01 10° 228° (SW) 2,220 5.8 -21.9°
Maximum altitude 22:00:06 72° 313° (NW) 782 3.6 -22.3°
Drops below altitude 10° 22:05:21 10° 38° (NE) 2,282 6.2 -22.7°
Sets 22:07:47 0° 41° (NE) 3,215 7.0 -22.9°
